Погода в Каесе

Мали     14°27′10″N   11°26′17″W
темп.,
°C
ветер,
м/с
пор.,
м/с
влажн.,
%
обл.,
%
осадки,
мм/ч
давл.,
гПа
погр.,
м
14 мая, пт
пт1400:00+36сз33112 0.0 100730
03:00+33ссз12135 0.0 100515
06:00+32св37135 0.0 1006128
09:00+37св6993 0.0 1009888
12:00+42всв5775 0.0 10082164
15:00+44всв3465 0.0 10043756
18:00+44ссв35624 0.0 10034583
21:00+40ссз3485 0.0 100554
15 мая, сб
сб1500:00+36с341026 0.0 100575
03:00+34с36125 0.0 1005116
06:00+31св121553 0.0 100611
09:00+36з32115 0.0 1009554
12:00+41св25827 0.0 10081927
15:00+44ссв3667 0.0 10043876
18:00+44вюв146100 0.0 10034862
21:00+39ю46899 0.0 1005113
16 мая, вс
вс1600:00+37зюз5111364 0.0 1006218
03:00+36зюз6121279 0.0 1005359
06:00+30юз9134159 0.0 1008539
09:00+32зюз793163 0.0 1010801
12:00+38юз54185 0.0 10101730
15:00+41юз54145 0.0 10072140
18:00+40ююз551593 0.0 10061820
21:00+38зюз351750 0.0 1007117
17 мая, пн
пн1700:00+37ююз351899 0.0 100883
03:00+33зюз492498 0.1 1006195
06:00+32юз7112916 0.1 1009523
09:00+34зюз7823100 0.0 1010750
12:00+39зюз661675 0.0 10101356
15:00+42з6412100 0.0 10062368
18:00+42зсз531296 0.0 10063376
21:00+38з4815100 0.0 1007205
18 мая, вт
вт1800:00+36зюз51117100 0.0 1008312
03:00+33зюз81525100 0.0 1007648
06:00+31зюз71226100 0.0 1009462
09:00+34зюз882496 0.0 1010790
12:00+38зюз6617100 0.0 10101341
15:00+41зсз551399 0.0 10061368
18:00+42з431149 0.0 10051572
21:00+37юз3615100 0.0 1007101